Date,TemperatureHighF,TemperatureAvgF,TemperatureLowF,DewpointHighF,DewpointAvgF,DewpointLowF,HumidityHigh,HumidityAvg,HumidityLow,PressureMaxIn,PressureMinIn,WindSpeedMaxMPH,WindSpeedAvgMPH,GustSpeedMaxMPH,PrecipitationSumIn
2013-7-1,89.0,73.7,66.0,70.0,61.5,53.0,100,68,38,0.00,40.00,8,3,12,0.14
2013-7-2,93.0,72.4,56.0,60.0,52.7,45.0,92,58,21,0.00,40.00,15,3,15,0.00
2013-7-3,96.0,61.5,56.0,53.0,50.3,43.0,85,69,16,0.00,40.00,8,2,8,0.00
2013-7-4,98.0,76.3,64.0,64.0,52.9,49.0,61,46,21,0.00,40.00,10,5,11,0.00
2013-7-5,102.0,78.5,66.0,60.0,53.8,48.0,75,47,17,0.00,40.00,10,5,10,0.00
2013-7-6,103.0,82.0,69.0,65.0,57.3,50.0,77,49,17,0.00,40.00,10,6,12,0.00
2013-7-7,102.0,80.0,66.0,63.0,59.1,54.0,82,53,22,0.00,40.00,10,5,11,0.00
2013-7-8,100.0,75.5,73.0,72.0,64.3,-99.9,92,74,31,0.00,40.00,11,4,15,0.00
2013-7-9,101.0,79.0,68.0,75.0,65.4,48.0,100,72,24,0.00,40.00,12,3,12,0.01
2013-7-10,104.0,79.5,71.0,71.0,58.2,-99.9,88,56,23,0.00,40.00,8,4,9,0.00
2013-7-11,102.0,84.6,73.0,71.0,62.8,58.0,81,52,24,0.00,40.00,8,4,10,0.00
2013-7-12,106.0,81.3,72.0,68.0,59.9,48.0,71,53,16,0.00,40.00,10,3,11,0.00
2013-7-13,107.0,85.3,68.0,63.0,54.9,48.0,69,42,14,0.00,40.00,11,4,11,0.00
2013-7-14,101.0,79.1,69.0,67.0,61.5,55.0,90,57,24,0.00,40.00,18,9,27,0.00
2013-7-15,70.0,65.7,63.0,68.0,65.5,63.0,100,99,90,0.00,40.00,14,8,23,1.74
2013-7-16,77.0,70.2,66.0,77.0,70.2,66.0,100,100,100,0.00,40.00,11,4,13,2.49
2013-7-17,78.0,71.0,68.0,78.0,71.0,68.0,100,100,100,0.00,40.00,13,5,13,2.49
2013-7-18,78.0,71.4,68.0,78.0,71.4,68.0,100,100,100,0.00,40.00,14,3,14,0.05
2013-7-19,77.0,70.1,66.0,77.0,69.6,66.0,100,99,88,0.00,40.00,5,0,5,0.05
2013-7-20,90.0,72.4,67.0,75.0,68.8,-99.9,100,92,58,0.00,40.00,8,2,12,0.02
2013-7-21,97.0,75.7,68.0,75.0,71.2,68.0,100,88,43,0.00,40.00,12,3,12,0.00
2013-7-22,88.0,73.8,71.0,77.0,72.6,70.0,100,97,56,0.00,40.00,6,3,6,0.05
2013-7-23,98.0,79.6,72.0,80.0,74.2,70.0,100,86,49,0.00,40.00,11,4,14,0.05
2013-7-24,104.0,78.8,69.0,73.0,68.5,67.0,95,74,31,29.88,29.79,8,3,11,0.00
2013-7-25,103.0,81.9,71.0,76.0,68.6,-99.9,97,72,32,29.96,29.86,9,3,12,0.00
2013-7-26,103.0,82.4,73.0,74.0,69.4,67.0,88,67,32,29.96,29.82,13,4,13,0.00
2013-7-27,96.0,79.8,68.0,72.0,66.6,61.0,97,68,35,30.01,29.84,10,4,12,0.00
2013-7-28,101.0,76.4,62.0,71.0,64.9,61.0,100,73,35,29.91,29.73,11,3,14,0.00
2013-7-29,103.0,81.1,75.0,76.0,68.6,61.0,93,69,29,29.89,29.81,10,3,12,0.00
2013-7-30,104.0,82.4,74.0,74.0,67.6,62.0,84,63,31,29.98,29.85,9,4,11,0.00
2013-7-31,84.0,77.6,74.0,74.0,68.4,63.0,86,74,60,30.03,29.93,7,3,7,0.00